Hurricane Symbol View the latest observations near Atlantic Tropical Storm Arlene.

Station FBIS1 - Folly Island, SC Image indicating link to RSS feed of recent meteorological observations for station FBIS1


Conditions at FBIS1 as of
(3:00 pm EDT)
1900 GMT on 06/02/2023:
     

Click on the graph icon in the table below to see a time series plot of the last five days of that observation.

5-day plot - Wind Direction Wind Direction (WDIR): E ( 90 deg true )
5-day plot - Wind Speed Wind Speed (WSPD):5.7 m/s
5-day plot - Wind Gust Wind Gust (GST):6.7 m/s
5-day plot - Atmospheric Pressure Atmospheric Pressure (PRES):1010.8 mb
5-day plot - Pressure Tendency Pressure Tendency (PTDY): -1.3 mb ( Falling )
5-day plot - Air Temperature Air Temperature (ATMP): 23.1 °C
5-day plot - Dew Point Dew Point (DEWP): 20.3 °C
5-day plot - Wind Speed at 10 Meters Wind Speed at 10 meters (WSPD10M): 6 m/s
5-day plot - Wind Speed at 20 Meters Wind Speed at 20 meters (WSPD20M): 6 m/s
5-day plot -  Wind Speed, Wind Gust and Atmospheric Pressure Combined plot of Wind Speed, Gust, and Air Pressure
Continuous Winds
TIME
(EDT)
5-day plot - Wind Direction WDIR 5-day plot - Wind Speed WSPD
3:00 pmE ( 89 deg ) 5.7 m/s
2:50 pmE ( 86 deg ) 5.7 m/s
2:40 pmE ( 86 deg ) 5.1 m/s
2:30 pmE ( 86 deg ) 5.1 m/s
2:20 pmE ( 87 deg ) 5.1 m/s
2:10 pmE ( 82 deg ) 4.6 m/s
 
Peak gust during the measurement hour
TIME
(EDT)
5-day plot - Gust Direction GDR 5-day plot - Gust Speed GST
2:58 pmE ( 90 deg ) 6.7 m/s
Previous observations
TIME
(EDT)
5-day plot - Wind Direction
WDIR
 
5-day plot - Wind Speed
WSPD
m/s
5-day plot - Wind Gust
GST
m/s
5-day plot - Wave Height
WVHT
m
5-day plot - Dominant Wave Period
DPD
sec
5-day plot - Average Wave Period
APD
sec
5-day plot - Mean Wave Direction
MWD
 
5-day plot - Atmospheric Pressure
PRES
mb
5-day plot - Pressure Tendency
PTDY
mb
5-day plot - Air Temperature
ATMP
°C
5-day plot - Water Temperature
WTMP
°C
5-day plot - Dew Point
DEWP
°C
5-day plot - Salinity
SAL
psu
5-day plot - Visibility
VIS
km
5-day plot - Tide (above MLLW)
TIDE
m
2023-06-02 02:00 pm E 4 5----1011.4 -1.0 23.2- 19.6---
2023-06-02 01:00 pm E 5 6----1011.9 -0.6 23.4- 20.2---
2023-06-02 12:00 pm N 5 6----1012.1 -0.5 23.2- 18.1---
2023-06-02 11:00 amNNE 4 5----1012.4 +0.0 22.2- 19.0---
2023-06-02 10:00 am NE 6 7----1012.5- 21.6- 19.5---
2023-06-02 09:00 amNNE 6 7----1012.6- 21.4- 19.6---
2023-06-02 08:00 amNNE 5 6----1012.6- 20.9- 19.6---
2023-06-02 03:00 am N 2------- 20.4- 19.7---
2023-06-02 02:00 amNNE 3 4----1013.0 -1.5 21.6- 20.0---
2023-06-02 01:00 am N 2 3----1013.5 -1.2 21.3- 20.8---
2023-06-02 12:00 amNNE 3 4----1013.9 -0.3 22.1- 20.9---
2023-06-01 11:00 pm NE 5 5----1014.5 +0.5 22.1- 20.7---
2023-06-01 10:00 pmENE 4 4----1014.7 +0.9 22.0- 20.8---
2023-06-01 09:00 pm E 3 4----1014.2 +0.0 22.1- 20.8---
2023-06-01 08:00 pmENE 6 7----1014.0 -0.7 22.1- 20.4---
2023-06-01 07:00 pmENE 5 6----1013.8 -1.2 22.1- 20.0---
2023-06-01 06:00 pm E 5 6----1014.1 -1.6 22.4- 20.0---
2023-06-01 05:00 pm E 5 5----1014.7 -1.0 23.0- 19.7---
2023-06-01 04:00 pm E 4 5----1015.0 -1.1 23.3- 19.9---
2023-06-01 03:00 pm E 3 3----1015.7 -0.6 22.9- 19.3---